Tracking 22124 objects as of 25-Jan-2021
HD Live streaming from Space Station
objects crossing your sky now

STARLINK-1705

Track STARLINK-1705 now!
10-day predictions
STARLINK-1705 is classified as:


NORAD ID: 46579
Int'l Code: 2020-070AZ
Perigee: 552.7 km
Apogee: 556.2 km
Inclination: 53.1 °
Period: 95.6 minutes
Semi major axis: 6925 km
RCS: Unknown
Launch date: October 6, 2020
Source: United States (US)
Launch site: AIR FORCE EASTERN TEST RANGE (AFETR)
aabbcc
Your satellite tracking list
Your tracking list is empty




NASA's NSSDC Master Catalog

Two Line Element Set (TLE):
1 46579U 20070AZ  21025.58335648  .00035290  00000-0  23773-2 0  9995
2 46579  53.0561 272.3311 0002529  76.0334 100.4016 15.06382506  1754
Source of the keplerian elements: AFSPC